EHI
0 0 0 0 0 0 0 0 0 0 0 1 2 2 2 3 4 3 2 1 1 1 2 3 3 3 2 3 4 4 2 1 1 1 0 0 1 2 1 0 0 0 0
0 0 0 0 0 0 0 0 0 0 0 0 1 1 1 2 3 3 2 1 1 3 3 2 2 2 2 2 3 4 3 2 1 0 0 1 1 2 1 0 0 0 0
0 0 0 0 0 0 0 0 0 0 0 0 0 0 0 1 1 2 3 2 1 3 3 2 1 1 1 1 2 3 4 2 1 0 1 1 1 1 1 0 0 0 0
0 0 0 0 0 0 0 0 0 0 0 0 0 0 0 0 0 1 2 1 1 1 1 1 0 0 1 1 1 1 2 1 0 0 0 0 0 0 0 0 0 0 0
0 0 0 0 0 0 0 0 0 0 0 0 0 0 0 0 0 0 1 0 0 0 0 0 0 0 1 1 0 0 0 0 0 0 0 0 0 0 0 1 1 1 0
0 0 0 0 0 0 0 0 0 0 0 0 0 0 0 0 0 0 0 0 0 0 0 0 0 0 0 0 0 0 0 1 0 0 0 0 0 0 0 1 2 1 0
0 0 0 0 0 0 0 0 0 0 0 0 0 0 0 0 0 0 0 0 0 0 0 0 0 0 0 0 0 0 0 0 0 0 0 0 0 0 0 1 1 0 0
0 0 0 0 0 0 0 0 0 0 1 1 0 0 0 0 0 0 0 0 0 0 0 0 0 0 0 0 0 0 0 0 0 0 0 0 0 0 0 0 0 0 0
0 0 0 0 0 0 0 0 0 0 1 1 0 0 0 0 0 0 0 0 0 0 0 0 0 0 0 0 0 0 0 0 0 0 0 0 0 0 1 1 0 0 0
0 0 0 0 0 0 0 0 0 0 1 1 0 0 0 0 0 0 0 0 0 0 0 0 0 0 0 0 0 0 0 0 0 0 0 0 0 1 2 1 0 0 0
0 0 0 0 0 0 0 0 0 0 0 0 0 0 0 0 0 0 0 0 0 0 0 0 0 0 0 0 0 0 0 0 0 0 0 0 0 1 2 1 0 0 0
0 0 0 0 0 0 0 0 0 0 0 0 0 0 0 0 0 0 0 0 0 0 0 0 0 0 0 0 0 0 0 0 0 0 0 0 0 1 1 0 0 0 0
0 0 0 0 0 0 0 0 0 0 0 0 0 0 0 0 0 0 0 0 0 0 0 0 0 0 0 0 0 0 0 0 0 0 0 0 0 0 0 0 0 0 0
0 0 0 0 0 0 0 0 0 0 0 0 0 0 0 0 0 0 0 0 0 0 0 0 0 0 0 0 0 0 0 0 0 0 0 0 0 0 0 0 0 0 0
0 0 0 0 0 0 0 0 0 0 0 0 0 0 0 0 0 0 0 0 0 0 0 0 0 0 0 0 0 0 0 0 0 0 0 0 0 0 1 1 1 0 0
0 0 0 0 0 0 0 0 0 0 0 0 0 0 0 0 0 0 0 0 0 0 0 0 0 0 0 0 0 0 0 0 0 0 0 0 1 1 1 2 1 0 0
0 0 0 0 0 0 0 0 0 0 0 0 0 0 0 0 0 0 0 0 0 0 0 0 0 0 0 0 0 0 0 0 0 0 0 0 0 0 1 1 1 0 0
0 0 0 0 0 0 0 0 0 0 0 0 0 0 0 0 0 0 0 0 0 0 0 0 0 0 0 0 0 0 0 0 0 0 0 0 0 0 0 0 0 0 0
0 0 0 0 0 0 0 0 0 0 0 0 0 0 0 0 0 0 0 0 0 0 0 0 0 0 0 0 0 0 0 0 0 0 0 0 0 0 0 0 0 0 0
0 0 0 0 0 0 0 0 0 0 0 0 0 0 0 0 0 0 0 0 0 0 0 0 0 0 0 0 0 0 0 0 0 0 0 0 0 0 0 0 0 0 0
0 0 0 0 0 0 0 0 0 0 0 0 0 0 0 0 0 0 0 0 0 0 0 0 0 0 0 0 0 0 0 0 0 0 0 0 0 0 0 0 0 0 0
0 0 0 0 0 0 0 0 0 0 0 0 0 0 0 0 0 0 0 0 0 0 0 0 0 0 0 0 0 0 0 0 0 0 0 0 0 0 0 0 0 0 0
0 0 0 0 0 0 0 0 0 0 0 0 0 0 0 0 0 0 0 0 0 0 0 0 0 0 0 0 0 0 0 0 0 0 0 0 0 0 0 0 0 0 0
0 0 0 0 0 0 0 0 0 0 0 0 0 0 0 0 0 0 0 0 0 0 0 0 0 0 0 0 0 0 0 0 0 0 0 0 0 0 0 0 0 0 0
0 0 0 0 0 0 0 0 1 1 1 0 0 0 0 0 0 0 0 0 0 0 0 0 0 0 0 0 0 0 0 0 0 0 0 0 0 0 0 0 0 0 0
0 0 0 0 0 0 0 1 2 2 2 1 0 0 0 0 0 0 0 0 0 0 0 0 0 0 0 0 0 0 0 0 0 0 0 0 0 0 0 0 0 0 0
Wind_Speed
2 3 3 2 3 3 4 5 6 7 7 8 8 8 8 9 9 8 8 8 8 8 8 7 7 6 7 7 7 7 7 9 8 8 8 8 8 8 7 7 7 5 8
1 2 1 2 2 4 5 5 6 7 8 8 8 8 8 8 9 8 8 8 8 8 8 7 7 6 6 6 6 7 7 8 8 8 8 7 7 7 7 7 7 4 7
0 1 0 1 3 4 6 7 7 7 8 8 8 8 8 9 8 8 8 8 8 8 8 7 7 6 6 6 6 6 6 7 7 7 7 4 4 6 7 6 6 6 6
1 0 1 3 4 5 6 6 7 7 7 8 8 8 8 9 8 8 8 8 8 8 8 8 8 7 7 7 7 7 6 7 7 7 4 3 3 5 6 6 5 6 5
2 1 1 4 5 6 6 6 7 7 8 8 8 8 9 8 8 8 8 8 8 8 8 8 8 7 7 7 7 7 7 7 7 6 4 3 2 4 5 5 5 5 5
2 2 2 5 5 6 7 7 7 8 8 8 8 8 8 8 9 8 8 8 8 8 8 8 8 8 8 8 7 7 7 8 6 4 3 3 2 4 5 5 5 5 5
2 1 2 5 6 6 7 7 7 7 8 8 8 8 8 8 9 9 9 9 9 8 8 8 8 8 8 8 8 8 8 8 5 4 3 2 2 4 5 5 5 5 5
3 2 2 4 5 5 6 7 7 7 7 8 8 8 8 8 9 9 9 9 9 9 8 8 8 8 8 9 9 9 8 8 6 4 3 2 3 4 5 5 5 5 5
3 3 2 2 3 4 5 6 6 7 7 7 7 8 8 8 9 9 9 9 9 9 9 9 9 9 9 9 10 11 10 10 5 3 3 2 3 4 5 5 4 4 5
3 2 2 2 2 2 3 4 5 5 6 6 7 7 7 8 8 9 8 8 9 9 9 9 9 9 9 9 10 10 10 8 4 3 2 2 5 5 6 6 6 6 5
1 1 1 1 2 2 2 3 4 4 5 5 5 7 7 5 5 5 7 8 8 8 9 9 9 9 9 9 10 9 8 3 3 2 1 4 6 6 7 7 7 7 6
1 1 1 0 1 1 2 3 2 2 3 3 3 3 3 3 3 4 7 8 7 8 8 9 9 9 7 4 6 7 3 4 3 2 3 6 7 7 7 7 7 7 7
2 1 1 1 0 1 1 1 1 1 2 2 2 2 2 2 2 3 2 4 4 6 4 6 6 4 4 3 3 3 3 3 2 2 3 7 7 8 8 8 7 7 7
2 1 1 1 1 1 1 1 1 1 1 1 1 2 2 2 2 2 2 2 2 2 3 3 3 4 4 4 4 4 4 3 2 2 3 6 7 8 8 8 8 7 7
2 2 1 1 1 1 1 1 1 1 1 1 1 2 2 2 2 2 2 2 2 2 2 2 3 3 4 4 4 4 4 4 3 3 3 6 7 7 7 7 8 8 7
4 3 2 2 2 2 1 1 1 1 1 1 1 1 2 2 2 2 2 2 2 2 2 2 3 3 3 3 4 4 3 3 3 3 3 4 7 7 6 6 7 7 7
4 3 3 2 2 2 2 1 1 1 1 1 1 1 2 2 2 2 2 2 2 2 3 3 3 3 3 4 4 4 3 3 3 3 3 3 3 6 6 6 6 6 6
3 3 3 3 3 2 2 1 1 1 1 1 1 1 2 2 3 2 2 2 1 2 2 2 2 3 3 3 3 3 3 3 3 3 3 3 3 3 4 6 5 6 6
4 4 3 2 3 3 2 2 2 2 2 1 1 1 2 2 3 3 2 1 2 2 2 2 3 2 3 3 3 3 3 3 3 4 4 3 3 3 3 4 6 6 6
4 4 4 3 3 3 2 3 2 2 2 1 1 1 2 2 3 3 2 2 2 2 2 2 3 3 2 2 3 4 3 3 3 3 3 3 3 3 3 3 3 4 5
3 4 4 4 3 3 2 2 2 1 1 1 1 1 2 2 2 3 2 2 2 2 2 2 2 3 2 2 3 3 3 3 3 3 2 2 3 3 3 3 2 2 2
4 4 4 4 4 3 2 2 2 2 1 1 1 1 2 2 2 2 3 2 2 2 2 2 2 2 2 2 2 2 2 4 3 3 2 2 2 2 3 3 2 2 2
4 5 4 4 4 3 3 3 3 3 2 2 2 1 1 1 2 2 2 2 2 2 2 1 2 3 2 1 2 2 2 1 2 3 2 2 2 2 2 2 2 2 1
5 4 4 4 4 3 4 4 4 3 2 1 1 0 1 1 1 2 2 2 2 2 2 1 2 2 3 1 1 1 1 2 2 2 3 2 2 2 2 2 2 2 2
4 4 4 4 4 3 3 4 4 2 1 1 1 1 1 1 1 1 2 2 2 2 2 2 2 2 2 2 2 1 1 1 1 2 1 3 2 2 2 1 1 1 1
3 4 4 4 3 3 4 4 4 4 3 2 2 1 1 1 1 1 1 1 2 2 2 2 2 2 2 2 2 2 2 2 2 2 2 2 2 2 2 1 1 1 1
Wind_Direction
286 290 314 19 42 53 64 67 68 69 70 71 71 75 77 77 80 80 79 77 77 76 77 84 89 100 108 113 114 118 125 125 126 125 125 122 118 119 115 110 107 106 116
238 284 315 46 59 71 77 77 76 73 72 74 76 78 79 80 81 81 79 78 77 76 76 78 80 89 100 106 109 113 118 121 122 122 120 116 116 115 112 109 107 109 116
185 281 286 76 79 79 79 78 79 77 75 75 79 81 81 83 86 82 79 77 76 76 75 75 76 86 91 98 103 111 114 115 117 113 103 91 104 114 115 114 117 117 114
143 62 94 97 90 86 84 82 80 81 78 76 77 78 79 80 81 81 79 79 77 78 78 73 72 85 88 91 88 93 100 108 108 101 86 82 92 113 117 117 120 123 119
90 63 97 100 93 91 89 86 84 83 80 78 78 77 77 77 76 80 81 83 81 80 81 80 74 76 82 86 85 85 91 97 94 85 77 72 77 115 121 119 121 124 121
87 68 93 100 94 93 92 88 83 82 79 77 77 78 77 75 73 76 80 82 81 80 79 81 77 75 78 81 82 86 91 88 84 75 73 70 73 108 118 121 122 126 128
112 79 78 99 95 93 93 90 86 83 80 76 75 76 76 74 74 74 74 76 76 77 80 78 74 75 81 78 75 79 88 90 85 78 76 69 82 109 107 115 120 117 118
115 90 70 88 92 88 90 89 85 80 79 78 75 75 73 73 73 72 71 72 73 74 76 77 74 74 78 77 73 75 86 90 84 77 76 76 93 100 102 105 113 115 111
79 73 53 47 66 80 84 86 84 78 77 77 74 72 69 67 68 67 66 68 70 73 74 74 72 72 76 75 75 73 81 78 71 66 68 72 95 99 97 99 103 111 109
63 61 53 41 41 49 47 66 76 75 74 73 70 66 61 55 53 53 55 60 63 65 68 68 69 70 71 73 73 76 78 73 65 60 44 70 86 92 92 91 88 91 96
81 62 69 51 36 45 40 59 55 56 56 57 54 57 52 42 36 35 42 55 59 60 62 62 63 67 66 67 69 70 69 59 57 50 44 71 82 87 90 87 83 84 85
166 145 117 77 46 47 44 51 38 41 40 44 44 47 50 51 42 38 33 43 50 54 58 57 56 57 56 52 60 62 54 50 49 41 51 67 81 86 85 85 84 85 86
183 168 150 164 113 88 62 57 46 42 35 35 38 49 61 54 44 35 30 29 36 43 41 45 48 44 50 54 59 59 55 50 42 33 47 64 74 77 77 79 84 85 86
164 190 172 156 121 104 95 72 68 58 43 34 27 53 72 64 49 39 38 34 38 40 48 48 54 51 54 55 59 61 58 54 46 36 45 61 70 74 77 76 80 83 85
183 196 190 160 149 127 95 77 85 85 80 70 54 60 85 88 71 58 48 45 45 48 54 55 58 56 55 53 54 58 56 51 44 39 37 55 68 72 74 78 81 82 82
195 195 184 174 162 133 124 109 102 101 90 79 74 82 92 97 95 82 67 55 48 51 57 65 66 61 56 56 52 50 52 54 50 44 38 40 51 60 65 72 79 83 82
192 186 180 176 146 137 136 127 104 96 90 82 77 88 100 101 102 96 83 67 51 61 69 68 63 60 60 56 49 44 47 50 50 44 41 38 33 41 52 63 74 78 77
175 172 184 172 148 141 131 118 101 92 96 92 87 89 104 106 112 107 97 82 69 69 74 75 64 63 56 54 45 34 37 41 43 43 44 40 34 30 34 54 72 79 76
179 170 168 158 149 143 121 95 88 83 80 83 84 93 109 107 109 110 101 89 81 75 69 79 67 73 70 59 55 41 31 33 31 39 39 35 36 37 30 39 52 65 69
175 164 162 154 145 125 101 83 72 65 55 63 76 96 109 112 115 113 106 95 91 88 71 72 77 66 72 69 64 46 27 24 32 31 26 29 34 38 37 36 32 36 48
167 160 164 160 155 134 115 114 108 94 46 43 59 97 112 115 120 120 114 106 101 101 104 102 99 79 54 52 66 33 14 24 32 23 19 30 29 25 32 34 34 32 23
180 172 166 167 162 159 151 140 131 122 109 71 49 77 97 112 121 126 128 130 121 107 96 95 107 103 62 45 98 84 17 357 1 12 10 25 18 17 22 23 30 28 19
179 179 176 170 163 159 135 106 82 61 47 41 39 45 43 101 115 120 132 134 134 131 140 142 134 127 121 42 61 126 130 226 319 340 357 6 2 7 356 358 20 13 11
195 181 169 161 156 152 140 135 134 135 149 196 177 132 47 79 103 116 123 132 138 135 143 160 131 132 132 133 56 56 119 152 143 334 332 342 355 357 342 348 357 353 353
185 171 165 152 147 147 145 146 141 135 152 118 91 87 64 51 74 115 133 134 139 150 160 152 135 138 146 159 156 140 103 79 113 143 286 318 337 326 321 318 322 323 324
168 153 149 146 150 148 148 150 153 150 145 128 119 119 68 40 33 66 134 144 158 163 172 170 157 151 156 150 153 162 161 159 176 162 202 263 293 300 311 302 301 298 301